FLOCK HZ

Last updated on May 24, 2016, 9:36 a.m. UTC

1 41479U 98067HZ  16145.11438247  .00011563  00000-0  17282-3 0  9991
2 41479  51.6429 178.0821 0002000 238.3210 224.9519 15.55505053  1054
UTC
Height (km)
Latitude
Longitude
Inclination
Orbital Period
UTC large
Height (km)
Speed (km/s)
/
Latitude / Longitude
Inclination (degrees)
Orbital Period (minutes)
Azimuth
Elevation
Range (km)
Doppler Factor
iOS Compass Heading
iOS Angle

Next 30 passes for location: Hong Kong

Rise time Rise Azimuth (degrees) Set time Set Azimuth (degrees) Duration Max altitude (degrees)

No matching passes for this satellites